Location: Gombori
(14.9797°N, 2.9419°W)
Time: 12:31:40
(UTC+00:00)

METEOR 2-17 DEB - Pass Details

Date: 06 June 2022
Orbit: 896 x 935 km, 82.5° (Epoch: 24 June)

Event Time Altitude Azimuth Distance (km) Brightness Sun altitude
Rises 20:57:41 0° 353° (N) 3,503 ? -29.6°
Reaches altitude 10° 21:00:08 10° 352° (N) 2,562 ? -30.1°
Enters shadow 21:05:25 71° 319° (NW) 943 ? -31.1°
